sat.trackr.live / text

‹ back to catalog

CUBY-1

NORAD 69902 · 2026-156AK

PAYLOAD ACTIVE UNKNOWN

§ Identity

Operator
Country
GER
Launch date
2026-07-07
Launch site
AFWTR
Launch vehicle
Mass (kg)
RCS (m²)

External: N2YO · Heavens-Above · Gunter

§ Orbital elements

Epoch: 2026-09-20T03:59:29.857056Z

Period
96.57 min
Inclination
97.7404°
Eccentricity
0.0002680
Mean motion
14.91167909 rev/d
Perigee alt
592.4 km
Apogee alt
596.2 km
Semi-major
6,972.4 km
B*
5.1064e-5
RAAN
162.2462°
Arg perigee
227.7593°
Mean anomaly
132.3398°
Rev number
1,115

§ Raw data

CUBY-11 69902U 26156AK  26263.16631779  .00000452  00000+0  51064-4 0  99952 69902  97.7404 162.2462 0002680 227.7593 132.3398 14.91167909 11157

JSON: /api/v1/satellites/69902 · /tle

For live sub-satellite position, see the globe view (requires WebGL).

§ Visibility from observer

Set your observer location to see the next 7 days of passes ≥ 10°. The values pass through the URL so the page stays shareable.

No JS? Fill the form by hand. The geolocation button needs JavaScript.